Location: Waco, TX
(31.5480°N, 97.1670°W)
Time: 20:58:17
(UTC-06:00)

ISS - Pass Details

Date: 18 February 2018
Orbit: 402 x 407 km, 51.6° (Epoch: 23 February)

Event Time Altitude Azimuth Distance (km) Brightness Sun altitude
Rises 17:19:41 0° 311° (NW) 2,313 0.4 11.1°
Reaches altitude 10° 17:21:47 10° 307° (NW) 1,451 -0.5 10.7°
Maximum altitude 17:24:58 56° 228° (SW) 481 -2.7 10.0°
Drops below altitude 10° 17:28:09 10° 149° (SSE) 1,445 -1.1 9.4°
Sets 17:30:15 0° 145° (SE) 2,301 -0.2 9.0°
